Regional Weather Roundup
Issued by NWS

Home | Current Version | Previous Version | Text Only | Print | Product List | Glossary On
Versions: 1 2 3 4 5 6 7 8 9 10 11 12 13 14 15 16 17 18 19 20 21 22 23 24 25 26 27 28 29 30 31 32 33 34 35 36 37 38 39 40 41 42 43 44 45 46 47 48 49 50
000
ASUS45 KABQ 290010
RWRNM
WEATHER ROUNDUP FOR NEW MEXICO
NATIONAL WEATHER SERVICE ALBUQUERQUE NM
600 PM MDT MON JUL 28 2014

NOTE: "FAIR" MEANS FEW OR NO CLOUDS BELOW 12,000 FEET AGL WITH NO
       SIGNIFICANT WEATHER OR OBSTRUCTIONS TO VISION.

      THIS PRODUCT IS RELEASED AS TWO VERSIONS.  ONE VERSION NEAR
      THE TOP OF THE HOUR CONTAINING PRELIMINARY DATA FROM ALBUQUERQUE
      AND OTHER STATIONS.  A FINAL VERSION WITH ADDITIONAL DATA IS
      ISSUED ABOUT 10 MINUTES AFTER THE HOUR.

NMZ501-503-504-510>518-290100-
NORTHWEST PLATEAU/NORTHCENTRAL MOUNTAINS

CITY           SKY/WX    TMP DP  RH WIND       PRES   REMARKS
FARMINGTON     CLOUDY    70  60  70 E23G30    30.29R
6HR MIN TEMP:  70; 6HR MAX TEMP:  87; 6HR PCP:  0.12;

LOS ALAMOS     PTSUNNY   73  50  44 W5        30.42S
SANTA FE       MOSUNNY   79  49  34 S23G36    30.34F
6HR MIN TEMP:  72; 6HR MAX TEMP:  81;

TAOS           CLOUDY    68  50  52 SW14      30.43S
ANGEL FIRE     FAIR      64  54  69 S12G17    30.53S

$$
NMZ402-403-502-505>509-290100-
WESTCENTRAL MOUNTAINS/SOUTHWEST MOUNTAINS

CITY           SKY/WX    TMP DP  RH WIND       PRES   REMARKS
GALLUP         CLOUDY    72  60  66 NE7       30.35S
6HR MIN TEMP:  60; 6HR MAX TEMP:  77; 6HR PCP:  0.57;

SILVER CITY    CLOUDY    73  57  56 NW15      30.29F

$$
NMZ407-409-411-412-290100-
SOUTHERN DESERTS

CITY           SKY/WX    TMP DP  RH WIND       PRES   REMARKS
LORDSBURG      MOCLDY    90  55  31 N8        30.17F
DEMING         PTSUNNY   90  53  28 CALM      30.16F
6HR MIN TEMP:  82; 6HR MAX TEMP:  92;

LAS CRUCES     CLOUDY    87  54  32 E8        30.19F
HOLLOMAN AFB   PTSUNNY   90  57  33 NE10      30.16F
ALAMOGORDO     PTSUNNY   90  55  31 E8G17     30.18F
T OR C         PTSUNNY   85  54  34 W10       30.22F
6HR MIN TEMP:  76; 6HR MAX TEMP:  88;


$$
NMZ519>523-290100-
CENTRAL VALLEYS/CENTRAL HIGHLANDS

CITY           SKY/WX    TMP DP  RH WIND       PRES   REMARKS
ALBUQUERQUE    PTSUNNY   85  49  28 SW15      30.27F
6HR MIN TEMP:  78; 6HR MAX TEMP:  86;

DOUBLE EAGLE   PTSUNNY   82  50  32 S7        30.31F
MORIARTY ARPT  FAIR      79  50  35 S12G18    30.35F
6HR MIN TEMP:  72; 6HR MAX TEMP:  83;

CLINES CORNERS CLOUDY    76  51  41 S15       30.40F
6HR MIN TEMP:  68; 6HR MAX TEMP:  79;

BELEN          MOCLDY    84  50  31 SE7G16    30.25F
6HR MIN TEMP:  79; 6HR MAX TEMP:  85;

SOCORRO        PTSUNNY   86  47  25 S12G18    30.22F
6HR MIN TEMP:  78; 6HR MAX TEMP:  90;


$$
NMZ524>526-539-540-290100-
SOUTHCENTRAL MOUNTAINS

CITY           SKY/WX    TMP DP  RH WIND       PRES   REMARKS
RUIDOSO        CLOUDY    66  59  77 SW6       30.43F

$$
NMZ527>531-290100-
NORTHEAST HIGHLANDS/NORTHEAST PLAINS

CITY           SKY/WX    TMP DP  RH WIND       PRES   REMARKS
LAS VEGAS      MOSUNNY   74  53  48 S17       30.41F
6HR MIN TEMP:  68; 6HR MAX TEMP:  76;

RATON          CLOUDY    70  61  73 S13       30.37F
6HR MIN TEMP:  63; 6HR MAX TEMP:  72;

CLAYTON        PTSUNNY   71  62  73 SE12      30.33S
6HR MIN TEMP:  64; 6HR MAX TEMP:  72; 6HR PCP: TRACE;


$$
NMZ532>537-290100-
EASTCENTRAL PLAINS

CITY           SKY/WX    TMP DP  RH WIND       PRES   REMARKS
TUCUMCARI      CLOUDY    77  56  48 W13       30.26S
6HR MIN TEMP:  77; 6HR MAX TEMP:  87;

CANNON AFB     PTSUNNY   80  62  55 E15G24    30.26F
6HR MIN TEMP:  78; 6HR MAX TEMP:  84;

CLOVIS AIRPORT NOT AVBL

$$
NMZ028-029-538-290100-
SOUTHEAST PLAINS

CITY           SKY/WX    TMP DP  RH WIND       PRES   REMARKS
ROSWELL        MOSUNNY   93  55  27 E8        30.15F
6HR MIN TEMP:  84; 6HR MAX TEMP:  93;

ARTESIA        MOSUNNY   91  54  27 SE9       30.14F
CARLSBAD       PTSUNNY   95  52  23 E12       30.10F
6HR MIN TEMP:  89; 6HR MAX TEMP:  98;

HOBBS          MOSUNNY   88  57  35 E17       30.19S


$$


USA.gov is the U.S. government's official web portal to all federal, state and local government web resources and services.